Regional Weather Roundup
Issued by NWS

Home | Current Version | Previous Version | Graphics & Text | Print | Product List | Glossary Off
Versions: 1 2 3 4 5 6 7 8 9 10 11 12 13 14 15 16 17 18 19 20 21 22 23 24 25 26 27 28 29 30 31 32 33 34 35 36 37 38 39 40 41 42 43 44 45 46 47 48 49 50

000
ASUS43 KFSD 070010
RWRSD

WEATHER ROUNDUP FOR SOUTH DAKOTA
NATIONAL WEATHER SERVICE SIOUX FALLS SD
700 PM CDT MON JUL 06 2015

NOTE: "FAIR" INDICATES FEW OR NO CLOUDS BELOW 12,000 FEET WITH NO
SIGNIFICANT WEATHER AND/OR OBSTRUCTIONS TO VISIBILITY.


SDZ001>005-009-010-012>017-070100-
NORTHWEST AND NORTH CENTRAL SOUTH DAKOTA

CITY           SKY/WX    TMP DP  RH WIND       PRES   REMARKS
BUFFALO          N/A     71  44  37 NW10      30.12F
FAITH            N/A     71  51  49 W7        30.15F
MOBRIDGE       MOSUNNY   73  52  47 N12       30.11S HAZE
$$

SDZ012>016-024>037-041>051-057-063-072>074-070100-
SOUTHWEST AND SOUTH CENTRAL SOUTH DAKOTA

CITY           SKY/WX    TMP DP  RH WIND       PRES   REMARKS
RAPID CTY ARPT CLOUDY    69  53  56 N6        30.18F
PIERRE         SUNNY     73  54  51 N10       30.10F
CUSTER         CLOUDY    57  50  77 E8        30.27F HAZE
ELLSWORTH AFB  CLOUDY    69  53  54 N8        30.18F
PHILIP         MOSUNNY   73  55  53 N7        30.13F
PINE RIDGE     CLOUDY    70  52  52 N5        30.18F
SPEARFISH      FAIR      66  54  63 N8        30.22F
WINNER         FAIR      75  52  44 N15       30.10F
$$

SDZ004>011-016>023-039-040-070100-
NORTHEAST SOUTH DAKOTA

CITY           SKY/WX    TMP DP  RH WIND       PRES   REMARKS
ABERDEEN       MOSUNNY   71  53  52 N14       30.09F HAZE
WATERTOWN      PTSUNNY   68  51  54 N15       30.07F
BROOKINGS      MOSUNNY   66  52  59 N14G21    30.08S
SISSETON         N/A     68  50  52 N17       30.07F
$$

SDZ017-020-022-023-036>040-048>070-070100-
SOUTHEAST SOUTH DAKOTA

CITY           SKY/WX    TMP DP  RH WIND       PRES   REMARKS
SIOUX FALLS    MOSUNNY   70  56  61 N14G24    30.05R HAZE
HURON          SUNNY     72  54  53 N16       30.06F HAZE
CHAMBERLAIN    SUNNY     73  54  50 N12       30.08F
MITCHELL       SUNNY     72  54  53 N12       30.07F HAZE
YANKTON        MOSUNNY   73  55  53 N16G22    30.03R
$$

ABBREVIATIONS USED IN REMARKS
   TC - TEMPERATURE IN CELSIUS
  WCI - WIND CHILL INDEX
   HX - HEAT INDEX
  VSB - VISIBILITY



USA.gov is the U.S. government's official web portal to all federal, state and local government web resources and services.